Main page
METAR-TAF:

METAR-TAF

Airports :

RAF Holbeach

Holbeach, England

latitude: 52-52N, longitude: 000-09E, elevation: 3 m

Current weather observation

The report was made 39 minutes ago, at 14:50 UTC
Wind 12 kt from the East/Northeast
Temperature 27°C
Humidity 62%
Pressure 1014 hPa
Visibility 10 km or more
Few clouds at a height of 4000 ft
Broken clouds at a height of 6000 ft

METAR: EGYH 231450Z 07012KT 9999 FEW040 BKN060 27/19 Q1014 BLU

Time: 16:29 (15:29 UTC)


TAF: missing

Weather observations and forecasts of more than 4000 airports (METAR and TAF reports).

The available stations are represented by yellow and red dots on the map.

Hover mouse over dot to see the name of the station.

Then click to see weather observations and forecasts.

To change the map : click on the green buttons with a black cross to zoom in, on the green button with a dash to zoom out, or on the green arrows for adjacent maps.


METAR-TAF: